Regional Weather Roundup
Issued by NWS

Home | Current Version | Previous Version | Graphics & Text | Print | Product List | Glossary On
Versions: 1 2 3 4 5 6 7 8 9 10 11 12 13 14 15 16 17 18 19 20 21 22 23 24 25 26 27 28 29 30 31 32 33 34 35 36 37 38 39 40 41 42 43 44 45 46 47 48 49 50
313
ASUS45 KABQ 241501
RWRNM
NEW MEXICO REGIONAL WEATHER ROUNDUP
NATIONAL WEATHER SERVICE ALBUQUERQUE NM
900 AM MDT WED AUG 24 2016

NOTE: "FAIR" MEANS FEW OR NO CLOUDS BELOW 12,000 FEET AGL WITH NO
       SIGNIFICANT WEATHER OR OBSTRUCTIONS TO VISION.

      THIS PRODUCT IS RELEASED AS TWO VERSIONS.  ONE VERSION NEAR
      THE TOP OF THE HOUR CONTAINING PRELIMINARY DATA FROM ALBUQUERQUE
      AND OTHER STATIONS.  A FINAL VERSION WITH ADDITIONAL DATA IS
      ISSUED ABOUT 10 MINUTES AFTER THE HOUR.

NMZ501-503-504-510>518-241600-
NORTHWEST PLATEAU/NORTHCENTRAL MOUNTAINS

CITY           SKY/WX    TMP DP  RH WIND       PRES   REMARKS
FARMINGTON     FAIR      58  53  84 CALM      30.25R
LOS ALAMOS     FAIR      56  47  72 NE3       30.33R
SANTA FE       FAIR      60  50  69 N6        30.28R
TAOS           CLOUDY    52  41  66 N5        30.34R
ANGEL FIRE     CLOUDY    44  41  89 W3        30.39F

$$
NMZ402-403-502-505>509-241600-
WESTCENTRAL MOUNTAINS/SOUTHWEST MOUNTAINS

CITY           SKY/WX    TMP DP  RH WIND       PRES   REMARKS
GALLUP         CLOUDY    55  51  86 CALM      30.32R
GRANTS         CLOUDY    56  49  77 CALM      30.34S
SILVER CITY    FAIR      69  47  46 NW3       30.26S

$$
NMZ407-409-411-412-241600-
SOUTHERN DESERTS

CITY           SKY/WX    TMP DP  RH WIND       PRES   REMARKS
DEMING         FAIR      70  52  52 CALM      30.20R
LAS CRUCES     FAIR      70  61  72 CALM      30.20S
HOLLOMAN AFB   FAIR      73  58  59 S13       30.15S
ALAMOGORDO     FAIR      72  57  60 S12       30.18R
T OR C         CLOUDY    71  46  40 N5        30.21R

$$
NMZ519>523-241600-
CENTRAL VALLEYS/CENTRAL HIGHLANDS

CITY           SKY/WX    TMP DP  RH WIND       PRES   REMARKS
ALBUQUERQUE    PTSUNNY   63  51  65 N5        30.25S
DOUBLE EAGLE   PTSUNNY   64  48  55 CALM      30.28R
MORIARTY ARPT  PTSUNNY   57  49  73 NE5       30.28S
CLINES CORNERS CLOUDY    59  47  64 NW13      30.30S
BELEN          FAIR      63  50  63 NW6       30.25S
SOCORRO        CLOUDY    65  48  52 NE3       30.23R

$$
NMZ524>526-539-540-241600-
SOUTHCENTRAL MOUNTAINS

CITY           SKY/WX    TMP DP  RH WIND       PRES   REMARKS
RUIDOSO        NOT AVBL

$$
NMZ527>531-241600-
NORTHEAST HIGHLANDS/NORTHEAST PLAINS

CITY           SKY/WX    TMP DP  RH WIND       PRES   REMARKS
LAS VEGAS      FAIR      61  45  55 N7        30.29S
RATON          FAIR      62  49  62 CALM      30.25S
CLAYTON        FAIR      66  52  60 S5        30.18S

$$
NMZ532>537-241600-
EASTCENTRAL PLAINS

CITY           SKY/WX    TMP DP  RH WIND       PRES   REMARKS
TUCUMCARI      FAIR      72  59  63 SW16      30.14R
CANNON AFB     FAIR      66  58  75 W14       30.17S
CLOVIS AIRPORT PTSUNNY   66  55  68 W17       30.16S

$$
NMZ028-029-538-241600-
SOUTHEAST PLAINS

CITY           SKY/WX    TMP DP  RH WIND       PRES   REMARKS
ROSWELL        PTSUNNY   66  62  87 S14       30.13F
ARTESIA        FAIR      66  66 100 S14       30.16R
CARLSBAD       PTSUNNY   65  61  87 S17G23    30.16R
HOBBS          MOSUNNY   66  66 100 S8        30.18S


$$




USA.gov is the U.S. government's official web portal to all federal, state and local government web resources and services.